sat.trackr.live / text

‹ back to catalog

STARLINK-34138

NORAD 63971 · 2025-099V

PAYLOAD ACTIVE UNKNOWN

§ Identity

Operator
Country
US
Launch date
2025-05-13
Launch site
AFETR
Launch vehicle
Mass (kg)
RCS (m²)

Purposes: comms

External: N2YO · Heavens-Above · Gunter

§ Orbital elements

Epoch: 2026-09-20T09:23:02.222880Z

Period
94.27 min
Inclination
42.9989°
Eccentricity
0.0000928
Mean motion
15.27581662 rev/d
Perigee alt
482.4 km
Apogee alt
483.7 km
Semi-major
6,861.2 km
B*
4.7374e-4
RAAN
153.1492°
Arg perigee
293.3650°
Mean anomaly
66.7104°
Rev number
7,715

§ Raw data

STARLINK-341381 63971U 25099V   26263.39099795  .00012798  00000+0  47374-3 0  99952 63971  42.9989 153.1492 0000928 293.3650  66.7104 15.27581662 77158

JSON: /api/v1/satellites/63971 · /tle

For live sub-satellite position, see the globe view (requires WebGL).

§ Visibility from observer

Set your observer location to see the next 7 days of passes ≥ 10°. The values pass through the URL so the page stays shareable.

No JS? Fill the form by hand. The geolocation button needs JavaScript.